Hourly Data Report for October 14, 2014

All times are specified in Local Standard Time (LST). Add 1 hour to adjust for Daylight Saving Time where and when it is observed.

FREDERICTON
NEW BRUNSWICK

45°52'08.000" N
66°32'14.000" W
20.70 m
8101505
71700
YFC

Download Data

Hourly Data (October 2014)
Hourly Data Report for October 14, 2014
Temp Definition
°C
Dew Point Temp Definition
°C
Rel Hum Definition
%
Wind Dir Definition
10's deg

Wind Spd Definition
km/h
Visibility Definition
km
Stn Press Definition
kPa
Hmdx Definition


Wind Chill Definition


Weather Definition


TIME
00:00 Legend Double Dagger 5.7 5.4 98 19 11 16.1 102.03     LegendNANA
01:00 Legend Double Dagger 5.8 5.5 98 19 4 16.1 102.02     LegendNANA
02:00 Legend Double Dagger 3.8 3.8 100   0 6.4 102.01     Fog
03:00 Legend Double Dagger 3.3 3.3 100 30 4 2.0 102.02     Fog
04:00 Legend Double Dagger 1.9 1.9 100   0 3.2 102.06     Fog
05:00 Legend Double Dagger 1.5 1.5 100 24 8 0.8 102.06     Fog
06:00 Legend Double Dagger 1.2 1.2 100   0 0.4 102.05     Fog
07:00 Legend Double Dagger 1.7 1.7 100   0 0.2 102.07     Fog
08:00 Legend Double Dagger 4.0 4.0 100   0 0.0 102.07     Fog
09:00 Legend Double Dagger 7.8 7.8 100 21 9 6.4 102.08     Fog
10:00 Legend Double Dagger 10.8 10.4 97 23 9 16.1 102.07     LegendNANA
11:00 Legend Double Dagger 15.4 11.6 78 23 17 16.1 101.98     LegendNANA
12:00 Legend Double Dagger 18.5 11.9 65 20 15 16.1 101.90     LegendNANA
13:00 Legend Double Dagger 17.1 12.8 75 19 30 16.1 101.86     LegendNANA
14:00 Legend Double Dagger 16.2 13.0 81 21 17 16.1 101.80     LegendNANA
15:00 Legend Double Dagger 16.9 13.6 80 21 15 16.1 101.71     LegendNANA
16:00 Legend Double Dagger 17.4 14.0 80 20 17 16.1 101.69     LegendNANA
17:00 Legend Double Dagger 17.4 14.3 82 18 11 16.1 101.64     LegendNANA
18:00 Legend Double Dagger 16.8 14.3 85 18 11 16.1 101.64     LegendNANA
19:00 Legend Double Dagger 15.5 14.3 92 19 15 16.1 101.62     LegendNANA
20:00 Legend Double Dagger 15.6 14.5 93 19 9 16.1 101.61     LegendNANA
21:00 Legend Double Dagger 16.4 15.1 92 17 9 16.1 101.62     LegendNANA
22:00 Legend Double Dagger 16.9 15.4 91 20 11 16.1 101.60     LegendNANA
23:00 Legend Double Dagger 16.7 15.6 93 19 17 16.1 101.55     LegendNANA

Notes on Data Quality.

Legend

  • E = Estimated
  • M = Missing
  • NA = Not Available
  • ‡ = Partner data that is not subject to review by the National Climate Archives
Date modified: